This is the latest recevied weather packets stored in our database for station/object KD2DXJ. If no packets are shown the sender has not sent any weather packets the latest 10 day(s).
| Time | Temp. | Humidity | Pressure | Rain* | Wind** | Luminosity | Snow |
|---|---|---|---|---|---|---|---|
| 1778164802 | 10° C | 52% | 1010.2 hPa | 0 mm | - | 572 W/m² | - |
| 1778164499 | 10° C | 48% | 1010.2 hPa | 0 mm | - | 565 W/m² | - |
| 1778164196 | 10° C | 47% | 1010.3 hPa | 0 mm | - | 553 W/m² | - |
| 1778163892 | 10° C | 53% | 1010 hPa | 0 mm | - | 544 W/m² | - |
| 1778163589 | 10° C | 49% | 1010.2 hPa | 0 mm | - | 532 W/m² | - |
| 1778163285 | 9.44° C | 47% | 1010.3 hPa | 0 mm | - | 524 W/m² | - |
| 1778162982 | 9.44° C | 48% | 1010.2 hPa | 0 mm | - | 519 W/m² | - |
| 1778162679 | 9.44° C | 51% | 1010.2 hPa | 0 mm | - | 506 W/m² | - |
| 1778162376 | 9.44° C | 50% | 1010.4 hPa | 0 mm | - | 495 W/m² | - |
| 1778162072 | 9.44° C | 52% | 1010.3 hPa | 0 mm | - | 484 W/m² | - |
| 1778161770 | 8.89° C | 53% | 1010.2 hPa | 0 mm | - | 472 W/m² | - |
| 1778161467 | 8.89° C | 55% | 1010.2 hPa | 0 mm | - | 461 W/m² | - |
| 1778161163 | 8.89° C | 52% | 1010.2 hPa | 0 mm | - | 449 W/m² | - |
| 1778160858 | 8.33° C | 56% | 1010.4 hPa | 0 mm | - | 439 W/m² | - |
| 1778160557 | 8.33° C | 51% | 1010.2 hPa | 0 mm | - | 426 W/m² | - |
| 1778160253 | 8.33° C | 58% | 1010.4 hPa | 0 mm | - | 413 W/m² | - |
| 1778159950 | 7.78° C | 55% | 1010.3 hPa | 0 mm | - | 400 W/m² | - |
| 1778159647 | 7.78° C | 55% | 1010.3 hPa | 0 mm | - | 390 W/m² | - |
| 1778159344 | 7.78° C | 56% | 1010.4 hPa | 0 mm | - | 376 W/m² | - |
| 1778159041 | 7.78° C | 58% | 1010.5 hPa | 0 mm | - | 363 W/m² | - |
| 1778158740 | 7.78° C | 58% | 1010.5 hPa | 0 mm | - | 350 W/m² | - |
| 1778158437 | 7.78° C | 58% | 1010.4 hPa | 0 mm | - | 337 W/m² | - |
| 1778158135 | 7.78° C | 61% | 1010.2 hPa | 0 mm | - | 312 W/m² | - |
| 1778157830 | 7.22° C | 58% | 1010.3 hPa | 0 mm | - | 311 W/m² | - |
| 1778157529 | 7.22° C | 59% | 1010.5 hPa | 0 mm | - | 299 W/m² | - |
* Rain latest hour (hover to see other rain measurements)
** Current wind speed in m/s (hover to see current wind gust speed)